When you browse on this site, cookies collect data to enhance your experience and personalize the content and advertising you see.
Visit our Privacy Policy to learn more. By continuing to use the site, you agree to this use of cookies and data.
  • Em Portugal
  • Lista de países
  • Para 7 dias
  • Temperatura da água
  • Mapas de satélite
  • Mapa do tempo
  • Widgets de tempo
  • user-avatar
    Iniciar Sessão

    Previsão horária em Oran

    Hoje, 16 Dezembro, Domingo

    Tempo Temperatura Precipitação Vento Pressão Humidade
    00:00 +14°C° 0 mm 3 m/s 758 mmHg 41%
    01:00 +13°C° 0 mm 3 m/s 758 mmHg 41%
    02:00 +13°C° 0 mm 3 m/s 758 mmHg 41%
    03:00 +13°C° 0 mm 3 m/s 757 mmHg 41%
    04:00 +13°C° 0 mm 3 m/s 757 mmHg 41%
    05:00 +13°C° 0 mm 3 m/s 757 mmHg 42%
    06:00 +13°C° 0 mm 3 m/s 756 mmHg 42%
    07:00 +14°C° 0 mm 3 m/s 757 mmHg 40%
    08:00 +17°C° 0 mm 4 m/s 757 mmHg 39%
    09:00 +18°C° 0 mm 4 m/s 757 mmHg 37%
    10:00 +20°C° 0 mm 4 m/s 757 mmHg 35%
    11:00 +21°C° 0 mm 5 m/s 757 mmHg 32%
    12:00 +22°C° 0 mm 7 m/s 757 mmHg 33%
    13:00 +22°C° 0 mm 8 m/s 757 mmHg 36%
    14:00 +21°C° 0 mm 8 m/s 757 mmHg 40%
    15:00 +21°C° 0 mm 9 m/s 757 mmHg 43%
    16:00 +20°C° 0 mm 8 m/s 757 mmHg 49%
    17:00 +17°C° 0 mm 7 m/s 757 mmHg 54%
    18:00 +16°C° 0 mm 6 m/s 757 mmHg 59%
    19:00 +16°C° 0 mm 6 m/s 758 mmHg 60%
    20:00 +15°C° 0 mm 6 m/s 758 mmHg 61%
    21:00 +15°C° 0 mm 6 m/s 758 mmHg 62%
    22:00 +15°C° 0 mm 6 m/s 759 mmHg 62%
    23:00 +15°C° 0 mm 5 m/s 759 mmHg 62%

    Amanhã, 17 Dezembro, Segunda-feira

    Tempo Temperatura Precipitação Vento Pressão Humidade
    00:00 +15°C° 0 mm 5 m/s 759 mmHg 62%
    01:00 +15°C° 0 mm 5 m/s 759 mmHg 65%
    02:00 +14°C° 0 mm 4 m/s 759 mmHg 67%
    03:00 +14°C° 0 mm 4 m/s 760 mmHg 69%
    04:00 +14°C° 0 mm 4 m/s 760 mmHg 72%
    05:00 +14°C° 0 mm 3 m/s 760 mmHg 74%
    06:00 +13°C° 0 mm 3 m/s 760 mmHg 77%
    07:00 +15°C° 0.1 mm 2 m/s 760 mmHg 74%
    08:00 +16°C° 0.1 mm 2 m/s 760 mmHg 71%
    09:00 +17°C° 0.1 mm 2 m/s 761 mmHg 68%
    10:00 +18°C° 0 mm 2 m/s 761 mmHg 68%
    11:00 +18°C° 0 mm 3 m/s 761 mmHg 68%
    12:00 +19°C° 0 mm 3 m/s 761 mmHg 68%
    13:00 +19°C° 0 mm 3 m/s 760 mmHg 66%
    14:00 +19°C° 0 mm 3 m/s 760 mmHg 63%
    15:00 +20°C° 0 mm 3 m/s 759 mmHg 61%
    16:00 +19°C° 0 mm 3 m/s 759 mmHg 65%
    17:00 +18°C° 0 mm 3 m/s 760 mmHg 69%
    18:00 +17°C° 0 mm 4 m/s 760 mmHg 73%
    19:00 +15°C° 0 mm 4 m/s 760 mmHg 74%
    20:00 +15°C° 0 mm 4 m/s 760 mmHg 75%
    21:00 +15°C° 0 mm 4 m/s 760 mmHg 76%
    22:00 +14°C° 0 mm 4 m/s 760 mmHg 76%
    23:00 +14°C° 0 mm 4 m/s 760 mmHg 76%

    Depois de amanhã, 18 Dezembro, Terça-feira

    Tempo Temperatura Precipitação Vento Pressão Humidade
    00:00 +14°C° 0 mm 4 m/s 760 mmHg 75%
    01:00 +14°C° 0 mm 3 m/s 759 mmHg 74%
    02:00 +14°C° 0 mm 3 m/s 759 mmHg 73%
    03:00 +13°C° 0 mm 3 m/s 759 mmHg 72%
    04:00 +13°C° 0 mm 3 m/s 758 mmHg 70%
    05:00 +13°C° 0 mm 3 m/s 758 mmHg 68%
    06:00 +14°C° 0 mm 2 m/s 757 mmHg 66%
    07:00 +15°C° 0 mm 2 m/s 758 mmHg 60%
    08:00 +16°C° 0 mm 2 m/s 758 mmHg 54%
    09:00 +18°C° 0 mm 2 m/s 758 mmHg 48%
    10:00 +19°C° 0 mm 2 m/s 758 mmHg 43%
    11:00 +20°C° 0 mm 2 m/s 757 mmHg 38%
    12:00 +23°C° 0 mm 1 m/s 757 mmHg 34%
    13:00 +23°C° 0 mm 1 m/s 756 mmHg 34%
    14:00 +23°C° 0 mm 1 m/s 756 mmHg 35%
    15:00 +23°C° 0 mm 1 m/s 756 mmHg 36%
    16:00 +21°C° 0 mm 1 m/s 756 mmHg 44%
    17:00 +19°C° 0 mm 1 m/s 756 mmHg 52%
    18:00 +18°C° 0 mm 1 m/s 756 mmHg 60%
    19:00 +16°C° 0 mm 2 m/s 756 mmHg 61%
    20:00 +16°C° 0 mm 2 m/s 756 mmHg 62%
    21:00 +15°C° 0 mm 2 m/s 757 mmHg 63%
    22:00 +15°C° 0 mm 2 m/s 757 mmHg 64%
    23:00 +15°C° 0 mm 2 m/s 756 mmHg 65%

    19 Dezembro, Quarta-feira

    Tempo Temperatura Precipitação Vento Pressão Humidade
    00:00 +14°C° 0 mm 2 m/s 756 mmHg 66%
    01:00 +13°C° 0 mm 3 m/s 756 mmHg 65%
    02:00 +13°C° 0 mm 3 m/s 756 mmHg 64%
    03:00 +13°C° 0 mm 3 m/s 756 mmHg 63%
    04:00 +13°C° 0 mm 3 m/s 756 mmHg 63%
    05:00 +13°C° 0 mm 3 m/s 756 mmHg 63%
    06:00 +13°C° 0 mm 3 m/s 756 mmHg 62%
    07:00 +14°C° 0 mm 3 m/s 756 mmHg 61%
    08:00 +16°C° 0 mm 3 m/s 757 mmHg 59%
    09:00 +17°C° 0 mm 3 m/s 757 mmHg 57%
    10:00 +18°C° 0 mm 4 m/s 757 mmHg 54%
    11:00 +19°C° 0 mm 4 m/s 757 mmHg 51%
    12:00 +19°C° 0 mm 4 m/s 757 mmHg 47%
    13:00 +19°C° 0 mm 4 m/s 757 mmHg 49%
    14:00 +19°C° 0 mm 3 m/s 756 mmHg 51%
    15:00 +19°C° 0 mm 3 m/s 756 mmHg 52%
    16:00 +18°C° 0 mm 3 m/s 756 mmHg 57%
    17:00 +17°C° 0 mm 3 m/s 756 mmHg 61%
    18:00 +15°C° 0 mm 2 m/s 757 mmHg 65%
    19:00 +14°C° 0 mm 3 m/s 757 mmHg 67%
    20:00 +14°C° 0 mm 3 m/s 757 mmHg 69%
    21:00 +14°C° 0 mm 3 m/s 758 mmHg 72%
    22:00 +13°C° 0 mm 3 m/s 758 mmHg 73%
    23:00 +13°C° 0 mm 3 m/s 758 mmHg 74%

    20 Dezembro, Quinta-feira

    Tempo Temperatura Precipitação Vento Pressão Humidade
    00:00 +13°C° 0 mm 3 m/s 758 mmHg 75%
    01:00 +13°C° 0 mm 3 m/s 758 mmHg 76%
    02:00 +12°C° 0 mm 3 m/s 758 mmHg 77%
    03:00 +12°C° 0 mm 3 m/s 758 mmHg 79%
    04:00 +12°C° 0 mm 3 m/s 758 mmHg 79%
    05:00 +12°C° 0 mm 2 m/s 758 mmHg 80%
    06:00 +12°C° 0 mm 2 m/s 758 mmHg 81%
    07:00 +13°C° 0 mm 2 m/s 759 mmHg 74%
    08:00 +15°C° 0 mm 2 m/s 759 mmHg 68%
    09:00 +16°C° 0 mm 2 m/s 759 mmHg 61%
    10:00 +17°C° 0 mm 2 m/s 759 mmHg 57%
    11:00 +18°C° 0 mm 2 m/s 759 mmHg 53%
    12:00 +18°C° 0 mm 2 m/s 759 mmHg 49%
    13:00 +18°C° 0 mm 2 m/s 759 mmHg 49%
    14:00 +19°C° 0 mm 2 m/s 759 mmHg 49%
    15:00 +19°C° 0 mm 2 m/s 758 mmHg 50%
    16:00 +17°C° 0 mm 2 m/s 759 mmHg 56%
    17:00 +16°C° 0 mm 2 m/s 759 mmHg 62%
    18:00 +15°C° 0 mm 1 m/s 759 mmHg 67%
    19:00 +14°C° 0 mm 1 m/s 760 mmHg 70%
    20:00 +14°C° 0 mm 1 m/s 760 mmHg 72%
    21:00 +13°C° 0 mm 1 m/s 761 mmHg 75%
    22:00 +13°C° 0 mm 1 m/s 761 mmHg 76%
    23:00 +13°C° 0 mm 1 m/s 761 mmHg 78%

    21 Dezembro, Sexta-feira

    Tempo Temperatura Precipitação Vento Pressão Humidade
    00:00 +12°C° 0 mm 1 m/s 761 mmHg 79%
    01:00 +12°C° 0 mm 1 m/s 761 mmHg 81%
    02:00 +12°C° 0 mm 1 m/s 761 mmHg 83%
    03:00 +11°C° 0 mm 1 m/s 761 mmHg 84%
    04:00 +11°C° 0 mm 1 m/s 761 mmHg 85%
    05:00 +11°C° 0 mm 1 m/s 761 mmHg 85%
    06:00 +11°C° 0 mm 1 m/s 761 mmHg 85%
    07:00 +12°C° 0 mm 1 m/s 761 mmHg 78%
    08:00 +14°C° 0 mm 1 m/s 762 mmHg 70%
    09:00 +15°C° 0 mm 1 m/s 762 mmHg 63%
    10:00 +16°C° 0 mm 1 m/s 762 mmHg 57%
    11:00 +18°C° 0 mm 1 m/s 762 mmHg 52%
    12:00 +17°C° 0 mm 0 m/s 762 mmHg 47%
    13:00 +19°C° 0 mm 1 m/s 761 mmHg 45%
    14:00 +20°C° 0 mm 1 m/s 761 mmHg 44%
    15:00 +20°C° 0 mm 1 m/s 761 mmHg 42%
    16:00 +19°C° 0 mm 1 m/s 761 mmHg 48%
    17:00 +16°C° 0 mm 1 m/s 761 mmHg 54%
    18:00 +15°C° 0 mm 1 m/s 761 mmHg 60%
    19:00 +14°C° 0 mm 1 m/s 761 mmHg 61%
    20:00 +14°C° 0 mm 1 m/s 762 mmHg 63%
    21:00 +13°C° 0 mm 1 m/s 762 mmHg 65%
    22:00 +13°C° 0 mm 1 m/s 762 mmHg 64%
    23:00 +13°C° 0 mm 1 m/s 761 mmHg 63%
    Mostrar mais